| time (UTC) | temp F | wind direction | speed knots | gust knots | rain 1hr in | rain 24hr in | rain mn in | humidity % | barometer mb |
| 20260510082922 | 50 | 168 | 1.7 | 4.3 | 0.00 | 0.00 | 0.00 | 99 | 1012.2 |
| 20260510082421 | 50 | 102 | 1.7 | 2.6 | 0.00 | 0.00 | 0.00 | 99 | 1012.1 |
| 20260510081919 | 50 | 129 | 1.7 | 2.6 | 0.00 | 0.00 | 0.00 | 99 | 1012.2 |
| 20260510081415 | 50 | 128 | 1.7 | 3.5 | 0.00 | 0.00 | 0.00 | 99 | 1012.6 |
| 20260510080912 | 50 | 113 | 1.7 | 1.7 | 0.00 | 0.00 | 0.00 | 99 | 1012.3 |
| 20260510080411 | 50 | 229 | 0.9 | 0.9 | 0.00 | 0.00 | 0.00 | 99 | 1012.5 |
| 20260510075908 | 50 | 130 | 1.7 | 2.6 | 0.00 | 0.00 | 0.00 | 99 | 1012.6 |
| 20260510075406 | 50 | 145 | 1.7 | 1.7 | 0.00 | 0.00 | 0.00 | 99 | 1012.6 |
| 20260510074902 | 50 | 132 | 0.9 | 1.7 | 0.00 | 0.00 | 0.00 | 99 | 1012.4 |
| 20260510074359 | 50 | 98 | 0.9 | 0.9 | 0.00 | 0.00 | 0.00 | 99 | 1012.5 |
| 20260510073855 | 50 | 154 | 0.9 | 1.7 | 0.00 | 0.00 | 0.00 | 99 | 1012.7 |
| 20260510073351 | 50 | 145 | 0.0 | 0.9 | 0.00 | 0.00 | 0.00 | 99 | 1012.9 |
| 20260510072847 | 50 | 40 | 0.0 | 1.7 | 0.00 | 0.00 | 0.00 | 99 | 1012.7 |
| 20260510072345 | 50 | 140 | 1.7 | 2.6 | 0.00 | 0.00 | 0.00 | 99 | 1012.6 |
| 20260510071841 | 50 | 96 | 0.9 | 1.7 | 0.00 | 0.00 | 0.00 | 99 | 1012.5 |
| 20260510071337 | 49 | 343 | 1.7 | 2.6 | 0.00 | 0.00 | 0.00 | 99 | 1012.8 |
| 20260510070836 | 49 | 314 | 1.7 | 3.5 | 0.00 | 0.00 | 0.00 | 99 | 1012.9 |
| 20260510070333 | 49 | 328 | 0.0 | 6.1 | 0.00 | 0.00 | 0.00 | 99 | 1012.8 |
| 20260510065833 | 49 | 332 | 2.6 | 4.3 | 0.00 | 0.00 | 0.00 | 99 | 1012.5 |
| 20260510065330 | 49 | 94 | 2.6 | 3.5 | 0.00 | 0.00 | 0.00 | 99 | 1012.0 |
| 20260510064826 | 48 | 117 | 3.5 | 3.5 | 0.00 | 0.00 | 0.00 | 99 | 1012.2 |
| 20260510064324 | 48 | 114 | 2.6 | 2.6 | 0.00 | 0.00 | 0.00 | 99 | 1012.2 |
| 20260510063820 | 48 | 108 | 2.6 | 3.5 | 0.00 | 0.00 | 0.00 | 99 | 1012.1 |
| 20260510063317 | 48 | 76 | 0.0 | 1.7 | 0.00 | 0.00 | 0.00 | 99 | 1012.2 |
| 20260510062813 | 48 | 136 | 0.9 | 1.7 | 0.00 | 0.00 | 0.00 | 99 | 1012.3 |
| 20260510062309 | 48 | 159 | 0.0 | 0.0 | 0.00 | 0.00 | 0.00 | 99 | 1012.3 |
| 20260510061805 | 48 | 112 | 1.7 | 2.6 | 0.00 | 0.00 | 0.00 | 99 | 1012.4 |
| 20260510061303 | 48 | 170 | 0.9 | 1.7 | 0.00 | 0.00 | 0.00 | 99 | 1012.5 |
| 20260510060758 | 48 | 131 | 1.7 | 2.6 | 0.00 | 0.00 | 0.00 | 99 | 1012.4 |
| 20260510060255 | 48 | 116 | 1.7 | 1.7 | 0.00 | 0.00 | 0.00 | 98 | 1012.5 |
| 20260510055752 | 49 | 83 | 1.7 | 2.6 | 0.00 | 0.00 | 0.00 | 99 | 1012.6 |
| 20260510055250 | 49 | 88 | 1.7 | 1.7 | 0.00 | 0.00 | 0.00 | 99 | 1012.5 |
| 20260510054749 | 49 | 11 | 1.7 | 2.6 | 0.00 | 0.00 | 0.00 | 99 | 1012.7 |
| 20260510054246 | 49 | 343 | 1.7 | 5.2 | 0.00 | 0.00 | 0.00 | 99 | 1012.8 |
| 20260510053745 | 48 | 326 | 2.6 | 3.5 | 0.00 | 0.00 | 0.00 | 99 | 1012.5 |
| 20260510053242 | 48 | 23 | 0.9 | 4.3 | 0.00 | 0.00 | 0.00 | 99 | 1012.3 |
| 20260510052738 | 48 | 4 | 1.7 | 1.7 | 0.00 | 0.00 | 0.00 | 98 | 1012.2 |
| 20260510052234 | 48 | 12 | 1.7 | 1.7 | 0.00 | 0.00 | 0.00 | 98 | 1012.1 |
| 20260510051730 | 48 | 341 | 0.0 | 0.9 | 0.00 | 0.00 | 0.00 | 98 | 1012.1 |
| 20260510051227 | 47 | 14 | 0.9 | 0.9 | 0.00 | 0.00 | 0.00 | 98 | 1012.1 |
| 20260510050723 | 47 | 128 | 0.0 | 0.0 | 0.00 | 0.00 | 0.00 | 98 | 1011.9 |
| 20260510050221 | 48 | 115 | 0.0 | 0.0 | 0.00 | 0.00 | 0.00 | 98 | 1012.0 |
| 20260510045717 | 48 | 205 | 0.0 | 0.9 | 0.00 | 0.00 | 0.00 | 98 | 1012.0 |
| 20260510045214 | 48 | 30 | 0.9 | 1.7 | 0.00 | 0.00 | 0.00 | 98 | 1012.2 |
| 20260510044710 | 48 | 269 | 0.0 | 0.0 | 0.00 | 0.00 | 0.00 | 98 | 1012.2 |
| 20260510044209 | 48 | 237 | 0.0 | 1.7 | 0.00 | 0.00 | 0.00 | 98 | 1012.0 |
| 20260510043703 | 48 | 224 | 0.0 | 0.9 | 0.00 | 0.00 | 0.00 | 98 | 1012.4 |
| 20260510043200 | 48 | 159 | 0.0 | 0.0 | 0.00 | 0.00 | 0.00 | 98 | 1012.1 |
| 20260510042657 | 49 | 113 | 0.0 | 1.7 | 0.00 | 0.00 | 0.00 | 98 | 1012.1 |
| 20260510042154 | 49 | 173 | 0.9 | 1.7 | 0.00 | 0.00 | 0.00 | 98 | 1012.3 |
| 20260510041651 | 49 | 13 | 0.0 | 0.9 | 0.00 | 0.00 | 0.00 | 98 | 1012.2 |
| 20260510041148 | 50 | 30 | 0.0 | 0.9 | 0.00 | 0.00 | 0.00 | 98 | 1012.2 |
| 20260510040645 | 49 | 234 | 0.0 | 0.0 | 0.00 | 0.00 | 0.00 | 98 | 1012.1 |
| 20260510040142 | 49 | 224 | 0.0 | 0.0 | 0.00 | 0.00 | 0.00 | 97 | 1012.1 |
| 20260510035637 | 50 | 64 | 0.0 | 0.9 | 0.00 | 0.22 | 0.22 | 98 | 1012.2 |
| 20260510035132 | 50 | 44 | 0.0 | 0.0 | 0.00 | 0.22 | 0.22 | 98 | 1012.2 |
| 20260510034630 | 50 | 222 | 0.0 | 0.9 | 0.00 | 0.22 | 0.22 | 98 | 1012.3 |
| 20260510034127 | 50 | 236 | 0.0 | 0.9 | 0.00 | 0.22 | 0.22 | 97 | 1012.2 |
| 20260510033623 | 50 | 113 | 0.0 | 0.0 | 0.00 | 0.22 | 0.22 | 97 | 1012.2 |
| 20260510033121 | 50 | 132 | 0.0 | 1.7 | 0.00 | 0.22 | 0.22 | 97 | 1012.0 |
| 20260510032617 | 50 | 124 | 0.0 | 1.7 | 0.00 | 0.22 | 0.22 | 97 | 1012.0 |
| 20260510032112 | 51 | 172 | 0.0 | 0.9 | 0.00 | 0.22 | 0.22 | 97 | 1011.8 |
| 20260510031607 | 51 | 209 | 0.0 | 1.7 | 0.00 | 0.22 | 0.22 | 97 | 1011.9 |
| 20260510031104 | 51 | 236 | 0.0 | 1.7 | 0.00 | 0.22 | 0.22 | 97 | 1012.1 |
| 20260510030559 | 51 | 328 | 0.9 | 1.7 | 0.00 | 0.22 | 0.22 | 97 | 1011.7 |
| 20260510030057 | 51 | 324 | 0.0 | 1.7 | 0.00 | 0.22 | 0.22 | 97 | 1012.0 |
| 20260510025554 | 51 | 335 | 0.0 | 0.9 | 0.00 | 0.22 | 0.22 | 97 | 1012.1 |
| 20260510025052 | 51 | 224 | 0.9 | 0.9 | 0.00 | 0.22 | 0.22 | 97 | 1012.1 |
| 20260510024548 | 52 | 144 | 0.0 | 1.7 | 0.00 | 0.22 | 0.22 | 97 | 1011.9 |
| 20260510024044 | 52 | 201 | 0.0 | 0.9 | 0.00 | 0.22 | 0.22 | 97 | 1011.9 |
| 20260510023540 | 52 | 143 | 0.0 | 2.6 | 0.00 | 0.22 | 0.22 | 97 | 1012.0 |
| 20260510023039 | 52 | 129 | 2.6 | 2.6 | 0.00 | 0.22 | 0.22 | 97 | 1011.9 |
| 20260510022538 | 52 | 72 | 0.9 | 1.7 | 0.00 | 0.22 | 0.22 | 96 | 1011.9 |
| 20260510022037 | 52 | 89 | 0.0 | 0.0 | 0.00 | 0.22 | 0.22 | 96 | 1011.7 |
| 20260510021535 | 52 | 44 | 0.0 | 0.9 | 0.00 | 0.22 | 0.22 | 96 | 1011.9 |
| 20260510021032 | 52 | 108 | 0.9 | 1.7 | 0.00 | 0.22 | 0.22 | 96 | 1011.9 |
| 20260510020526 | 52 | 142 | 0.9 | 1.7 | 0.00 | 0.22 | 0.22 | 96 | 1011.7 |
| 20260510020022 | 52 | 151 | 0.0 | 1.7 | 0.00 | 0.22 | 0.22 | 95 | 1011.7 |
| 20260510015518 | 52 | 146 | 0.0 | 1.7 | 0.00 | 0.22 | 0.22 | 95 | 1011.7 |
| 20260510015014 | 52 | 119 | 0.0 | 1.7 | 0.00 | 0.22 | 0.22 | 95 | 1011.7 |
| 20260510014511 | 52 | 110 | 1.7 | 1.7 | 0.00 | 0.22 | 0.22 | 95 | 1011.6 |
| 20260510014008 | 52 | 128 | 0.9 | 1.7 | 0.00 | 0.22 | 0.22 | 94 | 1011.6 |
| 20260510013502 | 52 | 139 | 0.0 | 0.9 | 0.00 | 0.22 | 0.22 | 94 | 1011.7 |
| 20260510012958 | 52 | 124 | 0.9 | 1.7 | 0.00 | 0.22 | 0.22 | 93 | 1011.5 |
| 20260510012453 | 52 | 96 | 0.0 | 1.7 | 0.00 | 0.22 | 0.22 | 93 | 1011.5 |
| 20260510011948 | 52 | 109 | 0.0 | 0.9 | 0.00 | 0.22 | 0.22 | 92 | 1011.5 |
| 20260510011443 | 53 | 120 | 0.0 | 1.7 | 0.00 | 0.22 | 0.22 | 91 | 1011.5 |
| 20260510010939 | 53 | 138 | 0.0 | 1.7 | 0.00 | 0.22 | 0.22 | 91 | 1011.4 |
| 20260510010437 | 53 | 119 | 0.9 | 2.6 | 0.00 | 0.22 | 0.22 | 91 | 1011.4 |
| 20260510005933 | 54 | 109 | 1.7 | 2.6 | 0.00 | 0.22 | 0.22 | 90 | 1011.4 |
| 20260510005429 | 54 | 128 | 1.7 | 1.7 | 0.00 | 0.22 | 0.22 | 89 | 1011.3 |
| 20260510004927 | 54 | 119 | 1.7 | 2.6 | 0.00 | 0.22 | 0.22 | 88 | 1011.3 |
| 20260510004424 | 55 | 128 | 1.7 | 1.7 | 0.00 | 0.22 | 0.22 | 87 | 1011.2 |
| 20260510003922 | 55 | 116 | 0.0 | 1.7 | 0.00 | 0.22 | 0.22 | 86 | 1011.1 |
| 20260510003419 | 55 | 105 | 0.9 | 1.7 | 0.00 | 0.22 | 0.22 | 86 | 1011.1 |
| 20260510002918 | 56 | 76 | 0.0 | 0.9 | 0.00 | 0.22 | 0.22 | 84 | 1011.1 |
| 20260510002415 | 56 | 135 | 0.0 | 1.7 | 0.00 | 0.22 | 0.22 | 83 | 1010.9 |
| 20260510001911 | 57 | 157 | 0.0 | 1.7 | 0.00 | 0.22 | 0.22 | 82 | 1010.8 |
| 20260510001409 | 57 | 149 | 0.0 | 1.7 | 0.00 | 0.22 | 0.22 | 81 | 1010.7 |
| 20260510000906 | 57 | 142 | 0.0 | 1.7 | 0.00 | 0.22 | 0.22 | 80 | 1010.6 |
| 20260510000403 | 58 | 163 | 0.0 | 1.7 | 0.00 | 0.22 | 0.22 | 79 | 1010.5 |
| 20260509235859 | 58 | 142 | 0.0 | 1.7 | 0.00 | 0.22 | 0.22 | 79 | 1010.7 |
| 20260509235356 | 58 | 156 | 1.7 | 1.7 | 0.00 | 0.22 | 0.22 | 78 | 1010.6 |
| 20260509234852 | 59 | 113 | 0.0 | 0.9 | 0.00 | 0.22 | 0.22 | 76 | 1010.6 |
| 20260509234349 | 59 | 131 | 1.7 | 2.6 | 0.00 | 0.22 | 0.22 | 76 | 1010.6 |
| 20260509233848 | 60 | 150 | 2.6 | 3.5 | 0.00 | 0.22 | 0.22 | 75 | 1010.4 |
| 20260509233345 | 60 | 171 | 1.7 | 1.7 | 0.00 | 0.22 | 0.22 | 73 | 1010.5 |
| 20260509232840 | 60 | 186 | 1.7 | 2.6 | 0.00 | 0.22 | 0.22 | 73 | 1010.6 |
| 20260509232338 | 61 | 164 | 0.0 | 1.7 | 0.00 | 0.22 | 0.22 | 75 | 1010.6 |
| 20260509231834 | 61 | 135 | 1.7 | 3.5 | 0.00 | 0.22 | 0.22 | 73 | 1010.4 |
| 20260509231331 | 61 | 169 | 1.7 | 3.5 | 0.00 | 0.22 | 0.22 | 73 | 1010.5 |
| 20260509230829 | 61 | 183 | 0.0 | 1.7 | 0.00 | 0.22 | 0.22 | 73 | 1010.6 |
| 20260509230326 | 61 | 174 | 1.7 | 3.5 | 0.00 | 0.22 | 0.22 | 75 | 1010.6 |
| 20260509225820 | 61 | 120 | 2.6 | 2.6 | 0.00 | 0.22 | 0.22 | 73 | 1010.6 |
| 20260509225318 | 61 | 147 | 2.6 | 2.6 | 0.00 | 0.22 | 0.22 | 74 | 1010.6 |
| 20260509224814 | 62 | 113 | 3.5 | 4.3 | 0.00 | 0.22 | 0.22 | 74 | 1010.6 |
| 20260509224310 | 62 | 181 | 1.7 | 2.6 | 0.00 | 0.22 | 0.22 | 72 | 1010.5 |
| 20260509223807 | 61 | 174 | 0.9 | 1.7 | 0.00 | 0.22 | 0.22 | 74 | 1010.5 |
| 20260509223304 | 60 | 286 | 0.0 | 3.5 | 0.00 | 0.22 | 0.22 | 75 | 1010.4 |
| 20260509222800 | 60 | 101 | 4.3 | 5.2 | 0.00 | 0.22 | 0.22 | 79 | 1010.6 |
| 20260509222256 | 60 | 113 | 3.5 | 3.5 | 0.00 | 0.22 | 0.22 | 78 | 1010.6 |
| 20260509221752 | 60 | 6 | 0.0 | 2.6 | 0.00 | 0.22 | 0.22 | 77 | 1010.8 |
| 20260509221249 | 59 | 253 | 1.7 | 2.6 | 0.00 | 0.22 | 0.22 | 79 | 1010.8 |
| 20260509220744 | 58 | 293 | 0.0 | 4.3 | 0.00 | 0.22 | 0.22 | 80 | 1010.7 |
| 20260509220241 | 58 | 215 | 0.0 | 3.5 | 0.00 | 0.22 | 0.22 | 81 | 1010.7 |
| 20260509215736 | 58 | 318 | 0.9 | 3.5 | 0.00 | 0.22 | 0.22 | 81 | 1011.2 |
| 20260509215233 | 58 | 192 | 0.0 | 2.6 | 0.00 | 0.22 | 0.22 | 81 | 1010.9 |
| 20260509214730 | 58 | 190 | 0.9 | 1.7 | 0.00 | 0.22 | 0.22 | 81 | 1010.7 |
| 20260509214227 | 58 | 244 | 2.6 | 3.5 | 0.00 | 0.22 | 0.22 | 81 | 1010.7 |
| 20260509213724 | 58 | 286 | 1.7 | 3.5 | 0.00 | 0.22 | 0.22 | 80 | 1010.9 |
| 20260509213220 | 58 | 243 | 2.6 | 3.5 | 0.00 | 0.22 | 0.22 | 81 | 1010.7 |
| 20260509212718 | 59 | 172 | 2.6 | 4.3 | 0.00 | 0.22 | 0.22 | 79 | 1010.8 |
| 20260509212214 | 59 | 177 | 3.5 | 7.0 | 0.00 | 0.22 | 0.22 | 81 | 1010.7 |
| 20260509211710 | 58 | 150 | 2.6 | 3.5 | 0.00 | 0.22 | 0.22 | 83 | 1010.9 |
| 20260509211207 | 58 | 199 | 2.6 | 2.6 | 0.00 | 0.22 | 0.22 | 86 | 1010.8 |
| 20260509210704 | 57 | 183 | 3.5 | 3.5 | 0.00 | 0.22 | 0.22 | 86 | 1011.0 |
| 20260509210201 | 57 | 174 | 0.9 | 2.6 | 0.00 | 0.22 | 0.22 | 87 | 1011.1 |
| 20260509205701 | 57 | 237 | 1.7 | 4.3 | 0.00 | 0.22 | 0.22 | 87 | 1011.1 |
| 20260509205200 | 57 | 207 | 0.9 | 3.5 | 0.00 | 0.22 | 0.22 | 87 | 1011.2 |
| 20260509204657 | 57 | 198 | 3.5 | 3.5 | 0.00 | 0.22 | 0.22 | 87 | 1011.2 |
| 20260509204153 | 56 | 358 | 1.7 | 2.6 | 0.00 | 0.22 | 0.22 | 87 | 1011.3 |
| 20260509203649 | 56 | 232 | 5.2 | 5.2 | 0.00 | 0.22 | 0.22 | 88 | 1011.3 |
| 20260509203148 | 56 | 257 | 4.3 | 4.3 | 0.00 | 0.22 | 0.22 | 87 | 1011.4 |
| 20260509202643 | 56 | 301 | 4.3 | 5.2 | 0.00 | 0.22 | 0.22 | 87 | 1011.4 |
| 20260509202138 | 56 | 331 | 1.7 | 3.5 | 0.00 | 0.22 | 0.22 | 87 | 1011.6 |
| 20260509201633 | 56 | 257 | 2.6 | 3.5 | 0.00 | 0.22 | 0.22 | 87 | 1011.4 |
| 20260509201132 | 56 | 194 | 1.7 | 2.6 | 0.00 | 0.22 | 0.22 | 86 | 1011.4 |
| 20260509200627 | 56 | 239 | 2.6 | 3.5 | 0.00 | 0.22 | 0.22 | 88 | 1011.4 |
| 20260509200122 | 56 | 169 | 0.0 | 2.6 | 0.00 | 0.22 | 0.22 | 87 | 1011.2 |
| 20260509195618 | 56 | 263 | 1.7 | 2.6 | 0.00 | 0.22 | 0.22 | 87 | 1011.4 |
| 20260509195113 | 56 | 164 | 1.7 | 3.5 | 0.00 | 0.22 | 0.22 | 88 | 1011.3 |
| 20260509194612 | 56 | 122 | 0.9 | 0.9 | 0.00 | 0.22 | 0.22 | 89 | 1011.5 |
| 20260509194111 | 56 | 133 | 1.7 | 1.7 | 0.00 | 0.22 | 0.22 | 91 | 1011.5 |
| 20260509193606 | 56 | 116 | 0.9 | 2.6 | 0.02 | 0.22 | 0.22 | 91 | 1011.7 |
| 20260509193102 | 56 | 144 | 2.6 | 3.5 | 0.02 | 0.22 | 0.22 | 92 | 1011.8 |
| 20260509192559 | 55 | 137 | 1.7 | 2.6 | 0.00 | 0.22 | 0.22 | 92 | 1011.9 |
| 20260509192054 | 55 | 122 | 0.9 | 1.7 | 0.02 | 0.22 | 0.22 | 92 | 1011.7 |
| 20260509191554 | 55 | 131 | 1.7 | 2.6 | 0.02 | 0.22 | 0.22 | 92 | 1011.9 |
| 20260509191050 | 55 | 110 | 1.7 | 3.5 | 0.02 | 0.22 | 0.22 | 92 | 1011.9 |
| 20260509190548 | 55 | 189 | 3.5 | 3.5 | 0.05 | 0.22 | 0.22 | 92 | 1012.3 |
| 20260509190045 | 55 | 192 | 1.7 | 1.7 | 0.05 | 0.21 | 0.21 | 92 | 1012.4 |
| 20260509185543 | 55 | 141 | 1.7 | 1.7 | 0.02 | 0.20 | 0.20 | 92 | 1012.4 |
| 20260509185039 | 55 | 136 | 0.9 | 2.6 | 0.02 | 0.20 | 0.20 | 91 | 1012.5 |
| 20260509184537 | 54 | 280 | 1.7 | 2.6 | 0.02 | 0.20 | 0.20 | 90 | 1012.4 |
| 20260509184033 | 55 | 148 | 1.7 | 2.6 | 0.02 | 0.20 | 0.20 | 91 | 1012.6 |
| 20260509183528 | 55 | 210 | 0.0 | 3.5 | 0.05 | 0.19 | 0.19 | 91 | 1012.7 |
| 20260509183025 | 55 | 187 | 3.5 | 3.5 | 0.05 | 0.19 | 0.19 | 90 | 1012.7 |
| 20260509182521 | 55 | 192 | 3.5 | 3.5 | 0.05 | 0.18 | 0.18 | 91 | 1012.8 |
| 20260509182018 | 55 | 222 | 2.6 | 2.6 | 0.02 | 0.18 | 0.18 | 90 | 1012.5 |
| 20260509181517 | 55 | 187 | 0.9 | 2.6 | 0.02 | 0.18 | 0.18 | 91 | 1012.7 |
| 20260509181014 | 55 | 195 | 1.7 | 5.2 | 0.02 | 0.18 | 0.18 | 90 | 1012.8 |
| 20260509180509 | 55 | 211 | 1.7 | 3.5 | 0.02 | 0.17 | 0.17 | 89 | 1012.7 |
| 20260509180007 | 55 | 189 | 0.0 | 4.3 | 0.02 | 0.17 | 0.17 | 90 | 1012.7 |
| 20260509175502 | 55 | 194 | 0.9 | 3.5 | 0.02 | 0.17 | 0.17 | 89 | 1012.7 |
| 20260509174959 | 55 | 228 | 2.6 | 3.5 | 0.07 | 0.17 | 0.17 | 89 | 1012.6 |
| 20260509174455 | 55 | 194 | 1.7 | 2.6 | 0.07 | 0.17 | 0.17 | 89 | 1012.5 |
| 20260509173950 | 55 | 247 | 0.0 | 2.6 | 0.05 | 0.16 | 0.16 | 90 | 1012.7 |
| 20260509173451 | 55 | 265 | 2.6 | 3.5 | 0.07 | 0.15 | 0.15 | 87 | 1012.6 |
| 20260509172947 | 55 | 211 | 0.0 | 3.5 | 0.07 | 0.15 | 0.15 | 88 | 1012.5 |
| 20260509172445 | 55 | 276 | 2.6 | 5.2 | 0.12 | 0.14 | 0.14 | 87 | 1012.3 |
| 20260509171940 | 55 | 261 | 2.6 | 7.8 | 0.19 | 0.13 | 0.13 | 85 | 1012.6 |
| 20260509171436 | 55 | 43 | 0.0 | 2.6 | 0.24 | 0.12 | 0.12 | 86 | 1012.1 |
| 20260509170933 | 56 | 252 | 1.7 | 5.2 | 0.19 | 0.10 | 0.10 | 84 | 1012.4 |
| 20260509170428 | 56 | 262 | 7.0 | 8.7 | 0.12 | 0.08 | 0.08 | 85 | 1012.6 |
| 20260509165924 | 57 | 303 | 2.6 | 5.2 | 0.09 | 0.07 | 0.07 | 86 | 1012.6 |
| 20260509165418 | 57 | 231 | 1.7 | 6.1 | 0.05 | 0.06 | 0.06 | 85 | 1012.9 |
| 20260509164914 | 57 | 203 | 0.9 | 4.3 | 0.02 | 0.05 | 0.05 | 85 | 1012.7 |
| 20260509164411 | 57 | 221 | 2.6 | 5.2 | 0.02 | 0.05 | 0.05 | 84 | 1012.7 |
| 20260509163906 | 58 | 205 | 1.7 | 3.5 | 0.05 | 0.05 | 0.05 | 84 | 1012.6 |
| 20260509163404 | 58 | 199 | 2.6 | 4.3 | 0.07 | 0.04 | 0.04 | 83 | 1012.7 |
| 20260509162902 | 58 | 263 | 1.7 | 3.5 | 0.07 | 0.04 | 0.04 | 81 | 1012.7 |
| 20260509162401 | 58 | 244 | 3.5 | 7.8 | 0.05 | 0.03 | 0.03 | 79 | 1012.7 |
| 20260509161857 | 59 | 252 | 3.5 | 7.8 | 0.07 | 0.03 | 0.03 | 78 | 1012.7 |
| 20260509161353 | 59 | 45 | 0.0 | 5.2 | 0.07 | 0.02 | 0.02 | 78 | 1012.6 |
| 20260509160849 | 59 | 209 | 2.6 | 2.6 | 0.02 | 0.02 | 0.02 | 79 | 1012.8 |
| 20260509160345 | 59 | 180 | 3.5 | 7.0 | 0.02 | 0.01 | 0.01 | 76 | 1012.8 |
| 20260509155840 | 59 | 218 | 1.7 | 5.2 | 0.02 | 0.01 | 0.01 | 75 | 1012.6 |
| 20260509155337 | 59 | 211 | 3.5 | 7.8 | 0.00 | 0.01 | 0.01 | 74 | 1013.0 |
| 20260509154834 | 59 | 180 | 2.6 | 5.2 | 0.00 | 0.01 | 0.01 | 73 | 1013.0 |
| 20260509154330 | 59 | 292 | 0.9 | 4.3 | 0.00 | 0.01 | 0.01 | 73 | 1012.7 |
| 20260509153827 | 59 | 214 | 4.3 | 6.1 | 0.00 | 0.01 | 0.01 | 73 | 1012.9 |
| 20260509153324 | 59 | 184 | 5.2 | 7.8 | 0.00 | 0.01 | 0.01 | 74 | 1012.9 |
| 20260509152821 | 58 | 189 | 3.5 | 5.2 | 0.00 | 0.01 | 0.01 | 74 | 1012.8 |
| 20260509152317 | 58 | 108 | 1.7 | 7.8 | 0.00 | 0.01 | 0.01 | 74 | 1012.9 |
| 20260509151815 | 58 | 201 | 1.7 | 6.1 | 0.00 | 0.01 | 0.01 | 75 | 1012.9 |
| 20260509151310 | 58 | 220 | 4.3 | 4.3 | 0.00 | 0.01 | 0.01 | 74 | 1012.8 |
| 20260509150809 | 58 | 185 | 2.6 | 4.3 | 0.00 | 0.01 | 0.01 | 75 | 1012.8 |
| 20260509150306 | 58 | 201 | 5.2 | 7.8 | 0.00 | 0.01 | 0.01 | 75 | 1013.0 |
| 20260509145803 | 58 | 213 | 5.2 | 5.2 | 0.00 | 0.01 | 0.01 | 74 | 1012.7 |
| 20260509145306 | 58 | 176 | 1.7 | 3.5 | 0.00 | 0.01 | 0.01 | 75 | 1012.6 |
| 20260509144800 | 58 | 159 | 0.9 | 1.7 | 0.00 | 0.01 | 0.01 | 76 | 1012.5 |
| 20260509144257 | 58 | 144 | 1.7 | 2.6 | 0.00 | 0.01 | 0.01 | 75 | 1012.6 |
| 20260509143754 | 58 | 54 | 0.9 | 3.5 | 0.00 | 0.01 | 0.01 | 75 | 1012.7 |
| 20260509143251 | 58 | 168 | 1.7 | 4.3 | 0.00 | 0.01 | 0.01 | 74 | 1012.8 |
| 20260509142747 | 58 | 225 | 1.7 | 3.5 | 0.00 | 0.01 | 0.01 | 74 | 1012.8 |
| 20260509142243 | 58 | 174 | 0.0 | 3.5 | 0.00 | 0.01 | 0.01 | 76 | 1012.9 |
| 20260509141739 | 57 | 92 | 3.5 | 3.5 | 0.00 | 0.01 | 0.01 | 76 | 1012.8 |
| 20260509141237 | 57 | 102 | 2.6 | 2.6 | 0.00 | 0.01 | 0.01 | 77 | 1012.7 |
| 20260509140733 | 57 | 148 | 0.0 | 1.7 | 0.00 | 0.01 | 0.01 | 76 | 1012.8 |
| 20260509140230 | 58 | 183 | 1.7 | 1.7 | 0.00 | 0.01 | 0.01 | 76 | 1012.6 |
| 20260509135728 | 57 | 132 | 0.9 | 1.7 | 0.00 | 0.01 | 0.01 | 76 | 1012.7 |
| 20260509135226 | 57 | 73 | 1.7 | 1.7 | 0.00 | 0.01 | 0.01 | 75 | 1012.6 |
| 20260509134722 | 57 | 180 | 0.9 | 2.6 | 0.00 | 0.01 | 0.01 | 75 | 1012.6 |
| 20260509134220 | 57 | 143 | 2.6 | 2.6 | 0.00 | 0.01 | 0.01 | 76 | 1012.4 |
| 20260509133717 | 57 | 181 | 2.6 | 3.5 | 0.00 | 0.01 | 0.01 | 76 | 1012.5 |
| 20260509133213 | 57 | 80 | 0.0 | 3.5 | 0.00 | 0.01 | 0.01 | 76 | 1012.3 |
| 20260509132712 | 57 | 163 | 1.7 | 2.6 | 0.02 | 0.01 | 0.01 | 78 | 1012.7 |
| 20260509132210 | 57 | 154 | 1.7 | 3.5 | 0.02 | 0.01 | 0.01 | 77 | 1012.6 |
| 20260509131706 | 56 | 112 | 2.6 | 5.2 | 0.00 | 0.00 | 0.00 | 75 | 1012.4 |
| 20260509131203 | 56 | 100 | 3.5 | 4.3 | 0.00 | 0.00 | 0.00 | 76 | 1012.4 |
| 20260509130659 | 56 | 105 | 4.3 | 5.2 | 0.00 | 0.00 | 0.00 | 76 | 1012.3 |
| 20260509130155 | 56 | 93 | 2.6 | 4.3 | 0.02 | 0.00 | 0.00 | 76 | 1012.6 |
| 20260509125652 | 56 | 123 | 1.7 | 3.5 | 0.02 | 0.00 | 0.00 | 76 | 1012.7 |
| 20260509125148 | 56 | 104 | 3.5 | 4.3 | 0.00 | 0.00 | 0.00 | 75 | 1012.4 |
| 20260509124645 | 55 | 104 | 3.5 | 3.5 | 0.00 | 0.00 | 0.00 | 77 | 1012.7 |
| 20260509124142 | 55 | 92 | 2.6 | 3.5 | 0.00 | 0.00 | 0.00 | 75 | 1012.7 |
| 20260509123640 | 55 | 189 | 0.9 | 2.6 | 0.00 | 0.00 | 0.00 | 77 | 1012.7 |
| 20260509123137 | 55 | 108 | 3.5 | 3.5 | 0.00 | 0.00 | 0.00 | 76 | 1012.6 |
| 20260509122632 | 55 | 100 | 1.7 | 1.7 | 0.00 | 0.00 | 0.00 | 76 | 1012.8 |
| 20260509122130 | 55 | 92 | 1.7 | 2.6 | 0.00 | 0.00 | 0.00 | 76 | 1012.7 |
| 20260509121626 | 54 | 77 | 2.6 | 3.5 | 0.00 | 0.00 | 0.00 | 76 | 1012.8 |
| 20260509121124 | 54 | 106 | 1.7 | 3.5 | 0.00 | 0.00 | 0.00 | 76 | 1013.0 |
| 20260509120622 | 54 | 84 | 2.6 | 3.5 | 0.00 | 0.00 | 0.00 | 77 | 1012.8 |
| 20260509120120 | 54 | 91 | 1.7 | 3.5 | 0.00 | 0.00 | 0.00 | 77 | 1012.9 |
| 20260509115617 | 54 | 100 | 2.6 | 3.5 | 0.00 | 0.00 | 0.00 | 79 | 1012.9 |
| 20260509115115 | 53 | 94 | 3.5 | 5.2 | 0.00 | 0.00 | 0.00 | 78 | 1012.7 |
| 20260509114612 | 53 | 121 | 5.2 | 5.2 | 0.00 | 0.00 | 0.00 | 78 | 1012.7 |
| 20260509114112 | 53 | 95 | 5.2 | 5.2 | 0.00 | 0.00 | 0.00 | 79 | 1012.5 |
| 20260509113609 | 53 | 115 | 3.5 | 5.2 | 0.00 | 0.00 | 0.00 | 79 | 1012.4 |
| 20260509113106 | 53 | 100 | 5.2 | 5.2 | 0.00 | 0.00 | 0.00 | 79 | 1012.5 |
| 20260509112602 | 52 | 87 | 4.3 | 5.2 | 0.00 | 0.00 | 0.00 | 79 | 1012.6 |
| 20260509112100 | 52 | 79 | 5.2 | 6.1 | 0.00 | 0.00 | 0.00 | 79 | 1012.5 |
| 20260509111557 | 52 | 104 | 2.6 | 3.5 | 0.00 | 0.00 | 0.00 | 80 | 1012.5 |
| 20260509111054 | 52 | 104 | 3.5 | 4.3 | 0.00 | 0.00 | 0.00 | 80 | 1012.5 |
| 20260509110551 | 52 | 62 | 2.6 | 3.5 | 0.00 | 0.00 | 0.00 | 79 | 1012.7 |
| 20260509110048 | 52 | 84 | 2.6 | 3.5 | 0.00 | 0.00 | 0.00 | 79 | 1012.6 |
| 20260509105546 | 52 | 108 | 1.7 | 1.7 | 0.00 | 0.00 | 0.00 | 79 | 1012.6 |
| 20260509105043 | 52 | 134 | 1.7 | 3.5 | 0.00 | 0.00 | 0.00 | 79 | 1012.4 |
| 20260509104540 | 52 | 92 | 2.6 | 4.3 | 0.00 | 0.00 | 0.00 | 78 | 1012.3 |
| 20260509104037 | 52 | 86 | 2.6 | 3.5 | 0.00 | 0.00 | 0.00 | 78 | 1012.2 |
| 20260509103535 | 52 | 93 | 1.7 | 1.7 | 0.00 | 0.00 | 0.00 | 78 | 1012.2 |
| 20260509103033 | 52 | 112 | 1.7 | 4.3 | 0.00 | 0.00 | 0.00 | 78 | 1012.3 |
| 20260509102530 | 52 | 94 | 3.5 | 6.1 | 0.00 | 0.00 | 0.00 | 78 | 1012.3 |
| 20260509102027 | 52 | 125 | 3.5 | 7.0 | 0.00 | 0.00 | 0.00 | 78 | 1012.6 |
| 20260509101523 | 52 | 117 | 5.2 | 6.1 | 0.00 | 0.00 | 0.00 | 78 | 1012.3 |
| 20260509101020 | 52 | 110 | 4.3 | 4.3 | 0.00 | 0.00 | 0.00 | 78 | 1012.1 |
| 20260509100517 | 52 | 63 | 5.2 | 6.1 | 0.00 | 0.00 | 0.00 | 78 | 1012.1 |
| 20260509100014 | 52 | 97 | 2.6 | 6.1 | 0.00 | 0.00 | 0.00 | 77 | 1012.0 |
| 20260509095510 | 52 | 82 | 4.3 | 7.0 | 0.00 | 0.00 | 0.00 | 77 | 1012.2 |
| 20260509095008 | 52 | 95 | 3.5 | 5.2 | 0.00 | 0.00 | 0.00 | 77 | 1012.1 |
| 20260509094504 | 52 | 107 | 1.7 | 2.6 | 0.00 | 0.00 | 0.00 | 77 | 1012.5 |
| 20260509094001 | 52 | 113 | 2.6 | 2.6 | 0.00 | 0.00 | 0.00 | 77 | 1012.4 |
| 20260509093500 | 52 | 104 | 1.7 | 2.6 | 0.00 | 0.00 | 0.00 | 76 | 1012.5 |
| 20260509092957 | 52 | 105 | 2.6 | 3.5 | 0.00 | 0.00 | 0.00 | 77 | 1012.4 |
| 20260509092455 | 52 | 101 | 1.7 | 2.6 | 0.00 | 0.00 | 0.00 | 77 | 1012.4 |
| 20260509091953 | 52 | 109 | 1.7 | 2.6 | 0.00 | 0.00 | 0.00 | 77 | 1012.5 |
| 20260509091450 | 52 | 95 | 1.7 | 3.5 | 0.00 | 0.00 | 0.00 | 77 | 1012.4 |
| 20260509090947 | 52 | 106 | 1.7 | 2.6 | 0.00 | 0.00 | 0.00 | 77 | 1012.5 |
| 20260509090444 | 52 | 92 | 2.6 | 4.3 | 0.00 | 0.00 | 0.00 | 77 | 1012.4 |
| 20260509085941 | 52 | 88 | 1.7 | 5.2 | 0.00 | 0.00 | 0.00 | 78 | 1012.2 |
| 20260509085438 | 51 | 102 | 1.7 | 2.6 | 0.00 | 0.00 | 0.00 | 78 | 1012.5 |
| 20260509084934 | 52 | 98 | 0.9 | 3.5 | 0.00 | 0.00 | 0.00 | 78 | 1012.3 |
| 20260509084432 | 52 | 91 | 3.5 | 3.5 | 0.00 | 0.00 | 0.00 | 77 | 1012.8 |
| 20260509083929 | 52 | 82 | 1.7 | 2.6 | 0.00 | 0.00 | 0.00 | 76 | 1012.7 |
| 20260509083426 | 52 | 83 | 1.7 | 2.6 | 0.00 | 0.00 | 0.00 | 76 | 1012.8 |